This demonstration page uses our WeatherBlox Daily Observations layout. Learn more.

Left ArrowRight Arrow

Hourly Observations for August 23, 2022

Temp ( °F °C ) Dew Point ( °F °C ) Humidity (%) Winds ( mph kmh ) Pressure ( in mb ) Visibility ( mi km ) Precip ( " mm )
12:10 am 00:10 Clear 62 16.8 57 13.8 82 82 S 6 9 30.01 1016 10 16 0.00 0.00
12:35 am 00:35 Clear 62 16.5 57 13.8 84 84 S 6 9 30.02 1016 10 16 0.00 0.00
12:55 am 00:55 Clear 61 16.2 57 13.7 85 85 S 7 11 30.02 1017 10 16 0.00 0.00
1:15 am 01:15 Clear 62 16.4 57 13.7 84 84 S 7 11 30.02 1017 10 16 0.00 0.00
1:35 am 01:35 Clear 60 15.5 56 13.5 88 88 S 6 9 30.03 1017 10 16 0.00 0.00
1:55 am 01:55 Clear 60 15.8 56 13.5 86 86 S 6 9 30.02 1017 10 16 0.00 0.00
2:15 am 02:15 Clear 61 15.9 56 13.5 86 86 S 6 9 30.02 1017 10 16 0.00 0.00
2:35 am 02:35 Clear 60 15.8 56 13.3 85 85 S 6 9 30.01 1016 10 16 0.00 0.00
2:55 am 02:55 Clear 62 16.6 56 13.4 81 81 SSW 6 9 30.00 1016 10 16 0.00 0.00
3:15 am 03:15 Clear 61 16.2 56 13.3 83 83 SSW 6 9 30.01 1016 10 16 0.00 0.00
3:35 am 03:35 Clear 60 15.5 56 13.2 86 86 SSW 3 6 30.01 1016 10 16 0.00 0.00
3:55 am 03:55 Clear 60 15.5 56 13.1 86 86 SSW 6 9 30.01 1016 10 16 0.00 0.00
4:15 am 04:15 Clear 60 15.5 56 13.2 86 86 SW 6 9 30.01 1016 10 16 0.00 0.00
4:35 am 04:35 Clear 59 15.2 56 13.2 88 88 SSW 5 7 30.01 1016 10 16 0.00 0.00
4:55 am 04:55 Clear 59 15.1 55 13 87 87 SW 5 7 30.01 1016 10 16 0.00 0.00
5:15 am 05:15 Clear 60 15.3 55 13 86 86 SW 6 9 30.01 1016 10 16 0.00 0.00
5:35 am 05:35 Clear 59 14.9 55 12.8 87 87 SW 3 6 30.01 1016 10 16 0.00 0.00
5:55 am 05:55 Clear 59 14.8 55 12.5 86 86 SW 6 9 30.01 1016 10 16 0.00 0.00
6:15 am 06:15 Clear 59 14.8 55 12.6 87 87 SW 6 9 30.01 1016 10 16 0.00 0.00
6:35 am 06:35 Clear 59 14.8 55 12.6 87 87 SW 5 7 30.01 1016 10 16 0.00 0.00
6:55 am 06:55 Clear 61 16 55 12.7 81 81 WSW 6 9 30.00 1016 10 16 0.00 0.00
7:15 am 07:15 Sunny 62 16.4 55 12.7 79 79 WSW 7 11 30.00 1016 10 16 0.00 0.00
7:35 am 07:35 Sunny 63 17.1 55 12.8 76 76 WSW 3 6 29.99 1016 10 16 0.00 0.00
7:55 am 07:55 Sunny 64 17.8 56 13.2 74 74 Calm 29.99 1015 10 16 0.00 0.00
8:15 am 08:15 Sunny 65 18.6 56 13.4 72 72 SW 5 7 29.98 1015 10 16 0.00 0.00
8:35 am 08:35 Sunny 67 19.5 56 13.5 68 68 SW 7 11 29.98 1015 10 16 0.00 0.00
8:55 am 08:55 Sunny 69 20.5 57 13.7 65 65 SW 7 11 29.97 1015 10 16 0.00 0.00
9:15 am 09:15 Sunny 71 21.6 57 13.7 61 61 SW 9 15 29.96 1015 10 16 0.00 0.00
9:35 am 09:35 Sunny 72 22.3 57 13.7 58 58 SW 10 17 29.96 1014 10 16 0.00 0.00
9:55 am 09:55 Sunny 74 23.4 57 14 56 56 SW 9 15 29.95 1014 10 16 0.00 0.00
10:15 am 10:15 Sunny 74 23.6 59 14.9 58 58 SW 7 11 29.95 1014 10 16 0.00 0.00
10:35 am 10:35 Sunny 76 24.5 59 14.8 55 55 SW 6 9 29.94 1014 10 16 0.00 0.00
10:55 am 10:55 Sunny 77 25.2 59 14.8 53 53 WSW 3 6 29.93 1014 10 16 0.00 0.00
11:15 am 11:15 Sunny 79 26.1 59 15 50 50 SW 6 9 29.93 1013 10 16 0.00 0.00
11:35 am 11:35 Sunny 80 26.5 60 15.6 51 51 S 5 7 29.92 1013 10 16 0.00 0.00
11:55 am 11:55 Sunny 80 26.6 59 15.1 49 49 S 6 9 29.92 1013 10 16 0.00 0.00
12:15 pm 12:15 Sunny 81 27.4 57 14 44 44 S 3 6 29.92 1013 10 16 0.00 0.00
12:35 pm 12:35 Sunny 82 27.8 59 15.1 46 46 S 6 9 29.90 1013 10 16 0.00 0.00
12:55 pm 12:55 Sunny 84 28.8 57 13.9 40 40 S 7 11 29.89 1012 10 16 0.00 0.00
1:15 pm 13:15 Sunny 85 29.3 57 13.7 38 38 S 8 13 29.88 1012 10 16 0.00 0.00
1:35 pm 13:35 Sunny 85 29.6 54 12.4 35 35 S 9 15 29.88 1012 10 16 0.00 0.00
1:55 pm 13:55 Sunny 86 29.9 55 13 36 36 SSE 8 13 29.88 1012 10 16 0.00 0.00
2:15 pm 14:15 Sunny 86 30.1 55 12.9 35 35 SSE 8 13 29.87 1011 10 16 0.00 0.00
2:35 pm 14:35 Sunny 87 30.3 55 13 35 35 S 9 15 29.86 1011 10 16 0.00 0.00
2:55 pm 14:55 Sunny 87 30.8 56 13.2 34 34 S 10 17 29.85 1011 10 16 0.00 0.00
3:15 pm 15:15 Sunny 88 31.1 55 12.8 33 33 SSE 9 15 29.85 1011 10 16 0.00 0.00
3:35 pm 15:35 Sunny 88 31 55 12.9 33 33 SSE 8 13 29.85 1011 10 16 0.00 0.00
3:55 pm 15:55 Sunny 88 31.1 56 13.2 34 34 S 7 11 29.84 1010 10 16 0.00 0.00
4:15 pm 16:15 Sunny 88 31.2 56 13.2 33 33 S 7 11 29.84 1010 10 16 0.00 0.00
4:35 pm 16:35 Sunny 88 31.3 55 12.9 33 33 SSE 7 11 29.83 1010 10 16 0.00 0.00
4:55 pm 16:55 Sunny 88 31.2 56 13.5 34 34 S 10 17 29.83 1010 10 16 0.00 0.00
5:15 pm 17:15 Sunny 88 30.9 56 13.6 35 35 S 9 15 29.83 1010 10 16 0.00 0.00
5:35 pm 17:35 Sunny 87 30.6 57 14.1 37 37 S 8 13 29.82 1010 10 16 0.00 0.00
5:55 pm 17:55 Sunny 87 30.4 57 13.8 36 36 S 9 15 29.83 1010 10 16 0.00 0.00
6:15 pm 18:15 Sunny 86 29.8 58 14.3 39 39 S 8 13 29.82 1010 10 16 0.00 0.00
6:35 pm 18:35 Sunny 85 29.3 58 14.3 40 40 S 8 13 29.82 1010 10 16 0.00 0.00
6:55 pm 18:55 Sunny 84 28.9 58 14.7 42 42 S 6 9 29.83 1010 10 16 0.00 0.00
7:15 pm 19:15 Sunny 83 28.1 61 16 48 48 S 5 7 29.83 1010 10 16 0.00 0.00
7:35 pm 19:35 Sunny 80 26.8 60 15.8 51 51 S 5 7 29.85 1011 10 16 0.00 0.00
7:55 pm 19:55 Sunny 78 25.6 61 15.9 55 55 S 6 9 29.86 1011 10 16 0.00 0.00
8:15 pm 20:15 Sunny 75 24 61 16.1 61 61 S 6 9 29.88 1012 10 16 0.00 0.00
8:35 pm 20:35 Clear 73 22.5 61 15.9 66 66 SSE 5 7 29.92 1013 10 16 0.00 0.00
8:55 pm 20:55 Clear 71 21.5 61 16 71 71 SSE 5 7 29.93 1013 10 16 0.00 0.00
9:15 pm 21:15 Clear 69 20.7 60 15.6 73 73 SSE 6 9 29.95 1014 10 16 0.00 0.00
9:35 pm 21:35 Clear 68 20.1 60 15.3 74 74 SSE 8 13 29.96 1014 10 16 0.00 0.00
9:55 pm 21:55 Clear 69 20.5 59 14.9 70 70 SSE 6 9 29.95 1014 10 16 0.00 0.00
10:15 pm 22:15 Clear 66 19.1 59 15 77 77 S 6 9 29.97 1015 10 16 0.00 0.00
10:35 pm 22:35 Clear 66 19 59 15 78 78 S 8 13 29.97 1015 10 16 0.00 0.00
10:55 pm 22:55 Clear 66 19 58 14.7 76 76 S 6 9 29.97 1015 10 16 0.00 0.00
11:15 pm 23:15 Clear 65 18.5 58 14.6 78 78 S 7 11 29.97 1015 10 16 0.00 0.00
11:35 pm 23:35 Clear 66 18.7 58 14.5 77 77 S 6 9 29.97 1015 10 16 0.00 0.00
11:55 pm 23:55 Clear 65 18.5 58 14.3 77 77 S 6 9 29.97 1015 10 16 0.00 0.00

Powered by AerisWeather